When you browse on this site, cookies collect data to enhance your experience and personalize the content and advertising you see.
Visit our Privacy Policy to learn more. By continuing to use the site, you agree to this use of cookies and data.
  • Em Portugal
  • Lista de países
  • Para 7 dias
  • Temperatura da água
  • Mapas de satélite
  • Mapa do tempo
  • Widgets de tempo
  • user-avatar
    Iniciar Sessão

    Previsão horária em Janiki

    Hoje, 21 Fevereiro, Quinta-feira

    Tempo Temperatura Precipitação Vento Pressão Humidade
    00:00 +1°C° 0 mm 4 m/s 750 mmHg 83%
    01:00 +2°C° 0 mm 2 m/s 750 mmHg 89%
    02:00 +2°C° 0 mm 2 m/s 750 mmHg 90%
    03:00 +1°C° 0 mm 3 m/s 750 mmHg 91%
    04:00 +1°C° 0 mm 3 m/s 750 mmHg 92%
    05:00 +1°C° 0 mm 3 m/s 750 mmHg 91%
    06:00 +1°C° 0 mm 3 m/s 750 mmHg 90%
    07:00 +2°C° 0 mm 3 m/s 750 mmHg 89%
    08:00 +1°C° 0.1 mm 4 m/s 750 mmHg 87%
    09:00 +3°C° 0.1 mm 4 m/s 750 mmHg 84%
    10:00 +4°C° 0.1 mm 4 m/s 750 mmHg 82%
    11:00 +5°C° 0.1 mm 5 m/s 750 mmHg 78%
    12:00 +6°C° 0.1 mm 5 m/s 750 mmHg 74%
    13:00 +6°C° 0.1 mm 5 m/s 750 mmHg 70%
    14:00 +6°C° 0.2 mm 5 m/s 749 mmHg 72%
    15:00 +6°C° 0.2 mm 4 m/s 749 mmHg 73%
    16:00 +6°C° 0.2 mm 4 m/s 749 mmHg 75%
    17:00 +5°C° 0.8 mm 4 m/s 749 mmHg 78%
    18:00 +5°C° 0.8 mm 4 m/s 748 mmHg 82%
    19:00 +5°C° 0.8 mm 4 m/s 748 mmHg 86%
    20:00 +4°C° 0.8 mm 4 m/s 748 mmHg 86%
    21:00 +4°C° 0.8 mm 4 m/s 748 mmHg 87%
    22:00 +4°C° 0.8 mm 4 m/s 747 mmHg 88%
    23:00 +4°C° 0.6 mm 4 m/s 747 mmHg 89%

    Amanhã, 22 Fevereiro, Sexta-feira

    Tempo Temperatura Precipitação Vento Pressão Humidade
    00:00 +4°C° 0.6 mm 3 m/s 747 mmHg 91%
    01:00 +4°C° 0.6 mm 3 m/s 747 mmHg 92%
    02:00 +3°C° 0.6 mm 4 m/s 747 mmHg 91%
    03:00 +1°C° 0.6 mm 5 m/s 747 mmHg 90%
    04:00 -2°C° 0.6 mm 7 m/s 748 mmHg 88%
    05:00 -3°C° 0.2 mm 7 m/s 749 mmHg 85%
    06:00 -4°C° 0.2 mm 7 m/s 750 mmHg 81%
    07:00 -6°C° 0.2 mm 7 m/s 751 mmHg 77%
    08:00 -6°C° 0 mm 7 m/s 753 mmHg 70%
    09:00 -6°C° 0 mm 7 m/s 754 mmHg 62%
    10:00 -5°C° 0 mm 6 m/s 756 mmHg 55%
    11:00 -5°C° 0 mm 6 m/s 756 mmHg 53%
    12:00 -5°C° 0 mm 6 m/s 757 mmHg 52%
    13:00 -4°C° 0 mm 6 m/s 758 mmHg 50%
    14:00 -5°C° 0 mm 6 m/s 758 mmHg 50%
    15:00 -5°C° 0 mm 6 m/s 759 mmHg 49%
    16:00 -5°C° 0 mm 6 m/s 759 mmHg 49%
    17:00 -6°C° 0 mm 6 m/s 760 mmHg 49%
    18:00 -6°C° 0 mm 5 m/s 760 mmHg 49%
    19:00 -7°C° 0 mm 5 m/s 761 mmHg 50%
    20:00 -7°C° 0 mm 5 m/s 761 mmHg 48%
    21:00 -7°C° 0 mm 5 m/s 762 mmHg 46%
    22:00 -7°C° 0 mm 5 m/s 762 mmHg 45%
    23:00 -7°C° 0 mm 5 m/s 762 mmHg 45%

    Depois de amanhã, 23 Fevereiro, Sábado

    Tempo Temperatura Precipitação Vento Pressão Humidade
    00:00 -7°C° 0 mm 4 m/s 763 mmHg 46%
    01:00 -7°C° 0 mm 4 m/s 763 mmHg 46%
    02:00 -7°C° 0 mm 4 m/s 763 mmHg 47%
    03:00 -7°C° 0 mm 4 m/s 763 mmHg 49%
    04:00 -7°C° 0 mm 4 m/s 763 mmHg 51%
    05:00 -8°C° 0 mm 4 m/s 763 mmHg 52%
    06:00 -7°C° 0 mm 3 m/s 763 mmHg 53%
    07:00 -7°C° 0 mm 3 m/s 764 mmHg 54%
    08:00 -7°C° 0 mm 4 m/s 764 mmHg 50%
    09:00 -7°C° 0 mm 4 m/s 764 mmHg 47%
    10:00 -5°C° 0 mm 4 m/s 764 mmHg 43%
    11:00 -4°C° 0 mm 4 m/s 764 mmHg 41%
    12:00 -4°C° 0 mm 4 m/s 764 mmHg 38%
    13:00 -3°C° 0 mm 4 m/s 764 mmHg 36%
    14:00 -3°C° 0 mm 4 m/s 764 mmHg 37%
    15:00 -3°C° 0 mm 4 m/s 763 mmHg 38%
    16:00 -4°C° 0 mm 4 m/s 763 mmHg 39%
    17:00 -4°C° 0 mm 3 m/s 763 mmHg 43%
    18:00 -5°C° 0 mm 3 m/s 764 mmHg 47%
    19:00 -4°C° 0 mm 2 m/s 764 mmHg 50%
    20:00 -4°C° 0 mm 2 m/s 764 mmHg 51%
    21:00 -4°C° 0 mm 2 m/s 764 mmHg 52%
    22:00 -2°C° 0 mm 1 m/s 763 mmHg 52%
    23:00 -2°C° 0 mm 1 m/s 763 mmHg 51%

    24 Fevereiro, Domingo

    Tempo Temperatura Precipitação Vento Pressão Humidade
    00:00 -2°C° 0 mm 1 m/s 763 mmHg 49%
    01:00 -1°C° 0 mm 1 m/s 763 mmHg 48%
    02:00 -1°C° 0 mm 1 m/s 763 mmHg 47%
    03:00 -1°C° 0 mm 1 m/s 762 mmHg 46%
    04:00 -3°C° 0 mm 2 m/s 762 mmHg 46%
    05:00 -1°C° 0 mm 1 m/s 762 mmHg 45%
    06:00 -1°C° 0 mm 1 m/s 762 mmHg 43%
    07:00 -1°C° 0 mm 1 m/s 762 mmHg 42%
    08:00 0°C° 0 mm 1 m/s 761 mmHg 38%
    09:00 -2°C° 0 mm 2 m/s 761 mmHg 35%
    10:00 -1°C° 0 mm 2 m/s 761 mmHg 31%
    11:00 +1°C° 0 mm 2 m/s 761 mmHg 30%
    12:00 +2°C° 0 mm 2 m/s 760 mmHg 29%
    13:00 +3°C° 0 mm 2 m/s 760 mmHg 29%
    14:00 +3°C° 0 mm 2 m/s 760 mmHg 33%
    15:00 +3°C° 0 mm 2 m/s 759 mmHg 37%
    16:00 +2°C° 0 mm 2 m/s 759 mmHg 42%
    17:00 +2°C° 0 mm 2 m/s 759 mmHg 46%
    18:00 +2°C° 0 mm 1 m/s 759 mmHg 49%
    19:00 +2°C° 0 mm 1 m/s 759 mmHg 53%
    20:00 +1°C° 0 mm 1 m/s 759 mmHg 55%
    21:00 +1°C° 0 mm 1 m/s 759 mmHg 57%
    22:00 +1°C° 0 mm 1 m/s 759 mmHg 59%
    23:00 +1°C° 0 mm 1 m/s 759 mmHg 60%

    25 Fevereiro, Segunda-feira

    Tempo Temperatura Precipitação Vento Pressão Humidade
    00:00 -1°C° 0 mm 0 m/s 759 mmHg 62%
    01:00 -1°C° 0 mm 0 m/s 759 mmHg 63%
    02:00 -1°C° 0 mm 0 m/s 759 mmHg 64%
    03:00 -1°C° 0 mm 0 m/s 759 mmHg 65%
    04:00 -1°C° 0 mm 0 m/s 759 mmHg 65%
    05:00 0°C° 0 mm 1 m/s 759 mmHg 66%
    06:00 0°C° 0 mm 1 m/s 759 mmHg 67%
    07:00 0°C° 0 mm 1 m/s 759 mmHg 68%
    08:00 +1°C° 0 mm 1 m/s 759 mmHg 65%
    09:00 +3°C° 0 mm 1 m/s 760 mmHg 62%
    10:00 +4°C° 0 mm 1 m/s 760 mmHg 59%
    11:00 +4°C° 0 mm 2 m/s 760 mmHg 61%
    12:00 +4°C° 0 mm 2 m/s 760 mmHg 64%
    13:00 +5°C° 0 mm 2 m/s 760 mmHg 66%
    14:00 +4°C° 0 mm 2 m/s 760 mmHg 72%
    15:00 +4°C° 0 mm 2 m/s 759 mmHg 77%
    16:00 +4°C° 0 mm 2 m/s 759 mmHg 83%
    17:00 +3°C° 0 mm 2 m/s 759 mmHg 87%
    18:00 +2°C° 0 mm 2 m/s 759 mmHg 90%
    19:00 +1°C° 0 mm 2 m/s 760 mmHg 94%
    20:00 +1°C° 0 mm 2 m/s 760 mmHg 93%
    21:00 +1°C° 0 mm 2 m/s 760 mmHg 93%
    22:00 +2°C° 0 mm 1 m/s 760 mmHg 92%
    23:00 +1°C° 0 mm 2 m/s 759 mmHg 93%

    26 Fevereiro, Terça-feira

    Tempo Temperatura Precipitação Vento Pressão Humidade
    00:00 -1°C° 0 mm 2 m/s 759 mmHg 94%
    01:00 -1°C° 0 mm 2 m/s 759 mmHg 95%
    02:00 -2°C° 0 mm 2 m/s 758 mmHg 95%
    03:00 -2°C° 0 mm 2 m/s 758 mmHg 95%
    04:00 -2°C° 0 mm 2 m/s 757 mmHg 95%
    05:00 -2°C° 0 mm 2 m/s 757 mmHg 93%
    06:00 -2°C° 0 mm 2 m/s 757 mmHg 92%
    07:00 -2°C° 0 mm 2 m/s 756 mmHg 90%
    08:00 0°C° 0 mm 3 m/s 756 mmHg 82%
    09:00 +2°C° 0 mm 3 m/s 755 mmHg 74%
    10:00 +3°C° 0 mm 4 m/s 755 mmHg 65%
    11:00 +4°C° 0 mm 4 m/s 754 mmHg 65%
    12:00 +6°C° 0 mm 5 m/s 753 mmHg 64%
    13:00 +7°C° 0 mm 6 m/s 753 mmHg 63%
    14:00 +7°C° 0 mm 5 m/s 752 mmHg 65%
    15:00 +7°C° 0 mm 5 m/s 751 mmHg 67%
    16:00 +6°C° 0 mm 5 m/s 751 mmHg 70%
    17:00 +5°C° 0 mm 5 m/s 751 mmHg 74%
    18:00 +3°C° 0 mm 5 m/s 751 mmHg 78%
    19:00 +3°C° 0 mm 4 m/s 751 mmHg 83%
    20:00 +2°C° 0 mm 5 m/s 751 mmHg 85%
    21:00 +1°C° 0 mm 5 m/s 751 mmHg 87%
    22:00 +1°C° 0 mm 5 m/s 751 mmHg 90%
    23:00 0°C° 0 mm 5 m/s 751 mmHg 90%
    Mostrar mais